Home > Weather > Savannah > Past weeks

Flag for USA Weather for the Past 2 Weeks in Savannah, Georgia, USA

Now
46 °F

Clear.


Feels Like: 45 °F
Forecast: 52 / 74 °F
Wind: 3 mph from West

Location: Hunter U. S. Army Airfield

Current Time: May 6, 2016 at 7:36:07 AM

Latest Report: May 6, 2016 at 6:58 AM


Visibility: 10 mi

Pressure: 29.83 "Hg

Humidity: 95%

Dew Point: 45 °F

Location of SavannahLocation

Historic Weather in Savannah — Graph

°F

Savannah Temperature Yesterday

Maximum temperature yesterday: 72 °F (at 4:58 PM)
Minimum temperature yesterday: 55 °F (at 5:58 AM)
Average temperature yesterday: 64 °F

High & Low Weather Summary for the Past Weeks

 TemperatureHumidityPressure
High90 °F (Apr 29, 2:58 PM)100% (Apr 21, 6:58 AM)30.15 "Hg (Apr 21, 6:58 AM)
Low46 °F (May 6, 5:58 AM)31% (May 5, 4:58 PM)29.62 "Hg (May 5, 3:58 AM)
Average73 °F78%29.93 "Hg
* Reported Apr 21 5:58 AM — May 6 5:58 AM, Savannah, Weather by CustomWeather, © 2016

Note: Actual official high and low records may vary slightly from our data, if they occured in-between our weather recording intervals... More about our weather records

Advertising

Savannah Weather History for the Previous 24 Hours

Scroll right to see more
 ConditionsComfort  
Time TempWeatherWind HumidityBarometerVisibility
5:58 AM
Fri, May 6
46 °FClear.5 mph92%29.80 "Hg10 mi
4:58 AM49 °FClear.6 mph87%29.79 "Hg10 mi
3:58 AM51 °FClear.8 mph82%29.79 "Hg10 mi
2:58 AM51 °FClear.8 mph79%29.77 "Hg10 mi
1:58 AM53 °FClear.9 mph74%29.78 "Hg10 mi
12:58 AM55 °FClear.9 mph66%29.78 "Hg10 mi
11:58 PM
Thu, May 5
58 °FPassing clouds.13 mph57%29.77 "Hg10 mi
10:58 PM59 °FMostly cloudy.9 mph56%29.77 "Hg10 mi
10:00 PM61 °FDrizzle. Mostly cloudy.9 mph48%29.75 "Hg10 mi
8:58 PM64 °FPartly sunny.13 mph42%29.75 "Hg10 mi
7:58 PM66 °FScattered clouds.10 mph37%29.71 "Hg10 mi
6:58 PM69 °FSunny.16 mph31%29.69 "Hg10 mi
5:58 PM71 °FScattered clouds.17 mph31%29.66 "Hg10 mi
4:58 PM72 °FScattered clouds.17 mph31%29.65 "Hg10 mi
3:58 PM71 °FPassing clouds.22 mph33%29.64 "Hg10 mi
2:58 PM72 °FPassing clouds.17 mph36%29.65 "Hg10 mi
1:59 PM72 °FPassing clouds.15 mph36%29.64 "Hg10 mi
12:58 PM71 °FSunny.18 mph36%29.66 "Hg10 mi
11:58 AM69 °FSunny.20 mph39%29.67 "Hg10 mi
10:58 AM68 °FPassing clouds.22 mph44%29.67 "Hg10 mi
9:58 AM65 °FSunny.16 mph53%29.67 "Hg10 mi
8:58 AM62 °FSunny.16 mph64%29.67 "Hg10 mi
7:58 AM58 °FSunny.15 mph77%29.67 "Hg10 mi
Weather by CustomWeather, © 2016

See weather overviewHow to use our weather pages